Location: Allos
(44.2333°N, 6.6333°E)
Time: 04:46:53
(UTC+00:00)

AQUARIUS - Pass Details

Date: 01 December 2020
Orbit: 650 x 652 km, 98.0° (Epoch: 24 January)

Event Time Altitude Azimuth Distance (km) Brightness Sun altitude
Rises 16:49:12 0° 159° (SSE) 2,959 7.6 -9.4°
Reaches altitude 10° 16:51:24 10° 157° (SSE) 2,053 6.7 -9.8°
Maximum altitude 16:55:51 71° 74° (ENE) 693 4.1 -10.5°
Drops below altitude 10° 17:00:21 10° 351° (N) 2,069 6.6 -11.3°
Sets 17:02:35 0° 350° (N) 2,984 7.5 -11.7°
